DW2973 Weather Reports


time (UTC)temp
C
wind
direction
speed
KPH
gust
KPH
rain 1hr
cm
rain 24hr
cm
rain mn
cm
humidity
%
barometer
mb
20260901190011 17 333 0.0 0.0 0.00 0.00 0.10 83 1012.5
20260901184506 17 266 0.0 0.0 0.00 0.00 0.10 84 1012.2
20260901183002 17 248 0.0 0.0 0.00 0.00 0.10 84 1012.2
20260901181502 17 244 0.0 0.0 0.00 0.00 0.10 83 1012.0
20260901180100 17 220 0.0 0.0 0.00 0.00 0.10 83 1011.9
20260901174601 18 220 0.0 0.0 0.00 0.00 0.10 81 1011.7
20260901173058 18 225 0.0 0.0 0.00 0.00 0.10 80 1011.7
20260901171629 19 232 0.0 0.0 0.00 0.00 0.10 79 1011.6
20260901170105 19 229 0.0 0.0 0.00 0.00 0.08 78 1011.6
20260901164612 20 236 0.0 0.0 0.00 0.00 0.08 76 1011.5
20260901163114 20 233 0.0 0.0 0.00 0.00 0.08 77 1011.5
20260901161556 20 210 0.0 0.0 0.00 0.00 0.08 75 1011.5
20260901160053 20 252 0.0 0.0 0.00 0.00 0.08 75 1011.4
20260901154556 20 249 0.0 0.0 0.00 0.00 0.08 77 1011.3
20260901153051 20 227 0.0 0.0 0.00 0.00 0.08 78 1011.3
20260901151551 21 259 0.0 0.0 0.00 0.00 0.08 75 1011.3
20260901150050 21 231 0.0 0.0 0.00 0.00 0.08 73 1011.2
20260901144549 21 230 0.0 0.0 0.00 0.00 0.08 73 1011.0
20260901143047 22 262 0.0 0.0 0.00 0.00 0.08 72 1011.0
20260901141548 22 234 0.0 0.0 0.00 0.00 0.08 72 1011.0
20260901140056 22 337 0.0 0.0 0.00 0.00 0.08 72 1011.0
20260901134551 22 215 0.0 0.0 0.00 0.00 0.08 72 1010.9
20260901133059 22 215 0.0 0.0 0.00 0.00 0.08 71 1010.8
20260901131547 22 240 0.0 0.0 0.00 0.00 0.08 72 1010.8
20260901130044 22 240 0.0 0.0 0.00 0.00 0.08 71 1010.9
20260901124541 22 224 0.0 0.0 0.00 0.00 0.08 73 1010.9
20260901123041 21 250 0.0 0.0 0.00 0.00 0.08 73 1010.9
20260901121546 21 253 0.0 0.0 0.00 0.00 0.05 74 1010.8
20260901120038 21 248 0.0 0.0 0.00 0.00 0.05 76 1011.0
20260901114534 21 246 0.0 0.0 0.00 0.00 0.05 76 1010.9
20260901113032 21 240 0.0 0.0 0.00 0.00 0.05 78 1010.9
20260901111530 20 214 0.0 0.0 0.00 0.00 0.05 78 1010.8
20260901110029 20 284 0.0 0.0 0.00 0.00 0.05 79 1010.8
20260901104535 20 271 0.0 0.0 0.00 0.00 0.05 81 1010.7
20260901103031 19 240 0.0 0.0 0.00 0.00 0.05 81 1010.6
20260901101523 20 230 0.0 0.0 0.00 0.00 0.05 81 1010.6
20260901100021 20 254 0.0 0.0 0.00 0.00 0.05 82 1010.4
20260901094522 19 252 0.0 0.0 0.00 0.00 0.05 85 1010.3
20260901093017 18 248 0.0 0.0 0.00 0.00 0.05 86 1010.3
20260901091514 18 259 0.0 0.0 0.00 0.00 0.05 88 1010.1
20260901090010 17 275 0.0 0.0 0.00 0.00 0.05 89 1010.0
20260901084508 17 270 0.0 0.0 0.00 0.00 0.05 90 1009.9
20260901083004 17 299 0.0 0.0 0.00 0.00 0.05 91 1009.8
20260901081502 17 299 0.0 0.0 0.00 0.00 0.05 92 1009.7
20260901080112 17 234 0.0 0.0 0.00 0.00 0.05 93 1009.4
20260901074559 16 234 0.0 0.0 0.00 0.00 0.05 93 1009.2
20260901073057 16 234 0.0 0.0 0.00 0.00 0.05 93 1009.2
20260901071603 16 234 0.0 0.0 0.00 0.00 0.05 94 1009.0
20260901064607 16 234 0.0 0.0 0.00 0.00 0.05 94 1008.8
20260901063106 16 234 0.0 0.0 0.00 0.00 0.05 94 1008.6
20260901061547 15 234 0.0 0.0 0.00 0.00 0.05 94 1008.5
20260901060046 15 234 0.0 0.0 0.00 0.00 0.05 94 1008.4
20260901054546 15 224 0.0 0.0 0.00 0.00 0.05 95 1008.3
20260901053045 14 224 0.0 0.0 0.00 0.00 0.05 94 1008.3
20260901051551 14 220 0.0 0.0 0.00 0.00 0.05 94 1008.2
20260901050042 14 220 0.0 0.0 0.00 0.00 0.05 94 1008.1
20260901044541 14 220 0.0 0.0 0.00 0.00 0.05 94 1007.9
20260901043040 14 220 0.0 0.0 0.00 0.00 0.05 94 1007.9
20260901041538 14 219 0.0 0.0 0.00 0.00 0.05 94 1007.7
20260901040040 14 220 0.0 0.0 0.00 0.00 0.03 94 1007.7
20260901034536 14 219 0.0 0.0 0.00 0.00 0.03 94 1007.7
20260901033039 14 219 0.0 0.0 0.00 0.00 0.03 94 1007.5
20260901031543 14 219 0.0 0.0 0.00 0.00 0.03 94 1007.3
20260901030033 14 220 0.0 0.0 0.00 0.00 0.03 94 1007.3
20260901024532 14 220 0.0 0.0 0.00 0.00 0.03 93 1007.2
20260901023030 14 220 0.0 0.0 0.00 0.00 0.03 93 1007.1
20260901021544 14 220 0.0 0.0 0.00 0.00 0.03 93 1007.1
20260901020030 14 219 0.0 0.0 0.00 0.00 0.03 93 1007.0
20260901014528 14 220 0.0 0.0 0.00 0.00 0.03 93 1006.9
20260901013033 14 220 0.0 0.0 0.00 0.00 0.03 93 1006.9
20260901011526 14 219 0.0 0.0 0.00 0.00 0.03 93 1006.9
20260901010041 14 219 0.0 0.0 0.00 0.00 0.03 93 1006.8
20260901004525 14 220 0.0 0.0 0.00 0.00 0.03 93 1006.8
20260901003028 14 220 0.0 0.0 0.00 0.00 0.03 93 1006.8
20260901001523 14 220 0.0 0.0 0.00 0.00 0.03 92 1006.7
20260901000021 15 220 0.0 0.0 0.00 0.00 0.03 92 1006.6
20260831234521 15 229 0.0 0.0 0.00 0.00 0.03 92 1006.6
20260831233019 15 229 0.0 0.0 0.00 0.00 0.03 92 1006.6
20260831231519 15 221 0.0 0.0 0.00 0.00 0.00 92 1006.5
20260831230017 15 221 0.0 0.0 0.00 0.00 0.00 92 1006.7
20260831224515 15 221 0.0 0.0 0.00 0.00 0.00 92 1006.5
20260831223021 15 221 0.0 0.0 0.00 0.00 0.00 92 1006.6
20260831221515 15 221 1.6 0.0 0.00 0.00 0.00 92 1006.7
20260831220010 15 232 0.0 0.0 0.00 0.00 0.00 92 1006.7
20260831214509 15 232 0.0 0.0 0.00 0.00 0.13 92 1006.6
20260831213008 15 232 0.0 0.0 0.00 0.00 0.13 92 1006.5
20260831211510 15 234 0.0 0.0 0.00 0.00 0.13 92 1006.5
20260831210013 15 234 0.0 0.0 0.00 0.00 0.13 92 1006.4
20260831204509 15 234 0.0 0.0 0.00 0.00 0.13 92 1006.4
20260831203010 15 233 0.0 0.0 0.00 0.00 0.13 92 1006.3
20260831201506 15 233 0.0 0.0 0.00 0.00 0.13 91 1006.3
20260831200016 15 233 0.0 0.0 0.00 0.00 0.13 91 1006.3
20260831194507 15 234 0.0 0.0 0.00 0.00 0.13 91 1006.3
20260831193009 15 234 0.0 0.0 0.00 0.00 0.13 91 1006.4
20260831191506 15 234 0.0 0.0 0.00 0.00 0.13 90 1006.3